User: anonymous   Login
Location: Mount Kobau Star Party
(49.1167°N, 119.7333°W)
Time: 03:09:09
(UTC-07:00)
Language:

TSX-5 - Orbit

View from above orbital plane
View from above orbital plane
View from above satellite
View from above satellite

Ground track
Ground track

The orbit data is extracted from the following two-line orbital elements,

1 26374U 00030A   16271.86798836  .00007040  00000-0  58989-3 0  9990
2 26374  68.9329  39.7403 0655437 212.4952 143.4177 14.03876474819270
Epoch (UTC): 27 September 2016 20:49:54
Eccentricity: 0.0655437
inclination: 68.9329°
perigee height: 404 km
apogee height: 1356 km
right ascension of ascending node: 39.7403°
argument of perigee: 212.4952°
revolutions per day: 14.03876474
mean anomaly at epoch: 143.4177°
orbit number at epoch: 81927

The dashed part of the orbit path shows where the satellite is in the earth's shadow,  

DLR